(°C)
20°
23°
25°
27°
27°
28°
28°
(°C)
22°
25°
27°
28°
29°
29°
29°
O
O
O
OSO
OSO
OSO
OSO
(km/h)
4-7
4-12
5-15
6-16
7-17
8-17
8-17
(mm)
0
0
0
0
0
0
0
(%)
0
0
0
0
0
0
0

Élévation du soleil

/ 26.5°
sun-icon
UV 6
07:11
19:11
Dernier quartier (264°)
23:57
14:23

METAR pour Winston-Salem (KINT)

Heure Conditions Température/
Point de rosée
Vent Visibilité Météo Nuages Pression Changement Brut
VFR 19.4°C / 14.4°C variable 0kt >10km - Clear 1016 - KINT 281254Z 00000KT 10SM CLR 19/14 A3005 RMK AO2 SLP167 T01940144
VFR 14.4°C / 12.2°C variable 0kt >10km - Clear 1016 - KINT 281154Z 00000KT 10SM CLR 14/12 A3005 RMK AO2 SLP167 T01440122 10172 20139 51009
VFR 16.1°C / 12.8°C 310º 3kt >10km - Clear 1016 - KINT 281054Z 31003KT 10SM CLR 16/13 A3004 RMK AO2 SLP164 T01610128
VFR 16.1°C / 12.8°C variable 0kt >10km - Clear 1015 - KINT 280954Z AUTO 00000KT 10SM CLR 16/13 A3003 RMK AO2 SLP159 T01610128
VFR 15.6°C / 13.3°C variable 0kt >10km - Clear 1015 - KINT 280854Z AUTO 00000KT 10SM CLR 16/13 A3002 RMK AO2 SLP156 T01560133 56010
VFR 16.7°C / 12.8°C variable 0kt >10km - Clear 1015 - KINT 280754Z AUTO 00000KT 10SM CLR 17/13 A3003 RMK AO2 SLP158 T01670128
VFR 15.6°C / 12.8°C variable 0kt >10km - Clear 1016 - KINT 280654Z AUTO 00000KT 10SM CLR 16/13 A3004 RMK AO2 SLP162 T01560128
VFR 16.1°C / 12.8°C variable 0kt >10km - Clear 1016 - KINT 280554Z AUTO 00000KT 10SM CLR 16/13 A3005 RMK AO2 SLP166 T01610128 10211 20156 58007
VFR 15.6°C / 12.2°C variable 0kt >10km - Clear 1017 - KINT 280454Z AUTO 00000KT 10SM CLR 16/12 A3006 RMK AO2 SLP172 T01560122 402720111
VFR 18.3°C / 12.8°C variable 0kt >10km - Clear 1017 - KINT 280354Z AUTO 00000KT 10SM CLR 18/13 A3007 RMK AO2 SLP173 T01830128
VFR 18.3°C / 12.8°C variable 0kt >10km - Clear 1017 - KINT 280254Z AUTO 00000KT 10SM CLR 18/13 A3007 RMK AO2 SLP174 T01830128 51003
VFR 17.8°C / 12.8°C variable 0kt >10km - Clear 1017 - KINT 280154Z AUTO 00000KT 10SM CLR 18/13 A3007 RMK AO2 SLP174 T01780128
VFR 19.4°C / 12.8°C variable 0kt >10km - Clear 1017 - KINT 280054Z 00000KT 10SM CLR 19/13 A3006 RMK AO2 SLP174 T01940128
VFR 21.1°C / 11.7°C variable 0kt >10km - Clear 1017 - KINT 272354Z 00000KT 10SM CLR 21/12 A3006 RMK AO2 SLP172 T02110117 10272 20206 53000
VFR 25°C / 10°C variable 3kt >10km - Clear 1017 - KINT 272254Z VRB03KT 10SM CLR 25/10 A3006 RMK AO2 SLP171 T02500100
VFR 26.1°C / 10°C 190º 5kt >10km - Clear 1016 - KINT 272154Z 19005KT 10SM CLR 26/10 A3005 RMK AO2 SLP169 T02610100
VFR 26.7°C / 10°C 270º 6kt >10km - Clear 1017 - KINT 272054Z 27006KT 10SM CLR 27/10 A3006 RMK AO2 SLP171 T02670100 56018
VFR 26.7°C / 8.3°C 290º 4kt >10km - Clear 1017 - KINT 271954Z 29004KT 10SM CLR 27/08 A3007 RMK AO2 SLP176 T02670083
VFR 26.1°C / 9.4°C variable 4kt >10km - Clear 1018 - KINT 271854Z VRB04KT 10SM CLR 26/09 A3009 RMK AO2 SLP180 T02610094
VFR 25.6°C / 8.3°C 310º 4kt >10km - Clear 1018 - KINT 271754Z 31004KT 10SM CLR 26/08 A3011 RMK AO2 SLP189 T02560083 10261 20139 58015
VFR 24.4°C / 9.4°C 300º 4kt >10km - Clear 1019 - KINT 271654Z 30004KT 10SM CLR 24/09 A3013 RMK AO2 SLP195 T02440094
VFR 23.3°C / 11.1°C variable 4kt >10km - Clear 1020 - KINT 271554Z VRB04KT 10SM CLR 23/11 A3016 RMK AO2 SLP204 T02330111
VFR 21.7°C / 10.6°C variable 3kt >10km - Clear 1020 - KINT 271454Z VRB03KT 10SM CLR 22/11 A3016 RMK AO2 SLP205 T02170106 50001
VFR 20°C / 10.6°C 290º 3kt >10km - Clear 1020 - KINT 271354Z 29003KT 10SM CLR 20/11 A3017 RMK AO2 SLP208 T02000106

VFR

19.4°C / 14.4°C

[Plus]
Vent variable 0kt
Visibilité >10km
Météo -
Nuages Clear
Pression 1016
Changement -
Brut KINT 281254Z 00000KT 10SM CLR 19/14 A3005 RMK AO2 SLP167 T01940144

VFR

14.4°C / 12.2°C

[Plus]
Vent variable 0kt
Visibilité >10km
Météo -
Nuages Clear
Pression 1016
Changement -
Brut KINT 281154Z 00000KT 10SM CLR 14/12 A3005 RMK AO2 SLP167 T01440122 10172 20139 51009

VFR

16.1°C / 12.8°C

[Plus]
Vent 310º 3kt
Visibilité >10km
Météo -
Nuages Clear
Pression 1016
Changement -
Brut KINT 281054Z 31003KT 10SM CLR 16/13 A3004 RMK AO2 SLP164 T01610128

VFR

16.1°C / 12.8°C

[Plus]
Vent variable 0kt
Visibilité >10km
Météo -
Nuages Clear
Pression 1015
Changement -
Brut KINT 280954Z AUTO 00000KT 10SM CLR 16/13 A3003 RMK AO2 SLP159 T01610128

VFR

15.6°C / 13.3°C

[Plus]
Vent variable 0kt
Visibilité >10km
Météo -
Nuages Clear
Pression 1015
Changement -
Brut KINT 280854Z AUTO 00000KT 10SM CLR 16/13 A3002 RMK AO2 SLP156 T01560133 56010

VFR

16.7°C / 12.8°C

[Plus]
Vent variable 0kt
Visibilité >10km
Météo -
Nuages Clear
Pression 1015
Changement -
Brut KINT 280754Z AUTO 00000KT 10SM CLR 17/13 A3003 RMK AO2 SLP158 T01670128

VFR

15.6°C / 12.8°C

[Plus]
Vent variable 0kt
Visibilité >10km
Météo -
Nuages Clear
Pression 1016
Changement -
Brut KINT 280654Z AUTO 00000KT 10SM CLR 16/13 A3004 RMK AO2 SLP162 T01560128

VFR

16.1°C / 12.8°C

[Plus]
Vent variable 0kt
Visibilité >10km
Météo -
Nuages Clear
Pression 1016
Changement -
Brut KINT 280554Z AUTO 00000KT 10SM CLR 16/13 A3005 RMK AO2 SLP166 T01610128 10211 20156 58007

VFR

15.6°C / 12.2°C

[Plus]
Vent variable 0kt
Visibilité >10km
Météo -
Nuages Clear
Pression 1017
Changement -
Brut KINT 280454Z AUTO 00000KT 10SM CLR 16/12 A3006 RMK AO2 SLP172 T01560122 402720111

VFR

18.3°C / 12.8°C

[Plus]
Vent variable 0kt
Visibilité >10km
Météo -
Nuages Clear
Pression 1017
Changement -
Brut KINT 280354Z AUTO 00000KT 10SM CLR 18/13 A3007 RMK AO2 SLP173 T01830128

VFR

18.3°C / 12.8°C

[Plus]
Vent variable 0kt
Visibilité >10km
Météo -
Nuages Clear
Pression 1017
Changement -
Brut KINT 280254Z AUTO 00000KT 10SM CLR 18/13 A3007 RMK AO2 SLP174 T01830128 51003

VFR

17.8°C / 12.8°C

[Plus]
Vent variable 0kt
Visibilité >10km
Météo -
Nuages Clear
Pression 1017
Changement -
Brut KINT 280154Z AUTO 00000KT 10SM CLR 18/13 A3007 RMK AO2 SLP174 T01780128

VFR

19.4°C / 12.8°C

[Plus]
Vent variable 0kt
Visibilité >10km
Météo -
Nuages Clear
Pression 1017
Changement -
Brut KINT 280054Z 00000KT 10SM CLR 19/13 A3006 RMK AO2 SLP174 T01940128

VFR

21.1°C / 11.7°C

[Plus]
Vent variable 0kt
Visibilité >10km
Météo -
Nuages Clear
Pression 1017
Changement -
Brut KINT 272354Z 00000KT 10SM CLR 21/12 A3006 RMK AO2 SLP172 T02110117 10272 20206 53000

VFR

25°C / 10°C

[Plus]
Vent variable 3kt
Visibilité >10km
Météo -
Nuages Clear
Pression 1017
Changement -
Brut KINT 272254Z VRB03KT 10SM CLR 25/10 A3006 RMK AO2 SLP171 T02500100

VFR

26.1°C / 10°C

[Plus]
Vent 190º 5kt
Visibilité >10km
Météo -
Nuages Clear
Pression 1016
Changement -
Brut KINT 272154Z 19005KT 10SM CLR 26/10 A3005 RMK AO2 SLP169 T02610100

VFR

26.7°C / 10°C

[Plus]
Vent 270º 6kt
Visibilité >10km
Météo -
Nuages Clear
Pression 1017
Changement -
Brut KINT 272054Z 27006KT 10SM CLR 27/10 A3006 RMK AO2 SLP171 T02670100 56018

VFR

26.7°C / 8.3°C

[Plus]
Vent 290º 4kt
Visibilité >10km
Météo -
Nuages Clear
Pression 1017
Changement -
Brut KINT 271954Z 29004KT 10SM CLR 27/08 A3007 RMK AO2 SLP176 T02670083

VFR

26.1°C / 9.4°C

[Plus]
Vent variable 4kt
Visibilité >10km
Météo -
Nuages Clear
Pression 1018
Changement -
Brut KINT 271854Z VRB04KT 10SM CLR 26/09 A3009 RMK AO2 SLP180 T02610094

VFR

25.6°C / 8.3°C

[Plus]
Vent 310º 4kt
Visibilité >10km
Météo -
Nuages Clear
Pression 1018
Changement -
Brut KINT 271754Z 31004KT 10SM CLR 26/08 A3011 RMK AO2 SLP189 T02560083 10261 20139 58015

VFR

24.4°C / 9.4°C

[Plus]
Vent 300º 4kt
Visibilité >10km
Météo -
Nuages Clear
Pression 1019
Changement -
Brut KINT 271654Z 30004KT 10SM CLR 24/09 A3013 RMK AO2 SLP195 T02440094

VFR

23.3°C / 11.1°C

[Plus]
Vent variable 4kt
Visibilité >10km
Météo -
Nuages Clear
Pression 1020
Changement -
Brut KINT 271554Z VRB04KT 10SM CLR 23/11 A3016 RMK AO2 SLP204 T02330111

VFR

21.7°C / 10.6°C

[Plus]
Vent variable 3kt
Visibilité >10km
Météo -
Nuages Clear
Pression 1020
Changement -
Brut KINT 271454Z VRB03KT 10SM CLR 22/11 A3016 RMK AO2 SLP205 T02170106 50001

VFR

20°C / 10.6°C

[Plus]
Vent 290º 3kt
Visibilité >10km
Météo -
Nuages Clear
Pression 1020
Changement -
Brut KINT 271354Z 29003KT 10SM CLR 20/11 A3017 RMK AO2 SLP208 T02000106

TAF pour Winston-Salem (KINT)

From till


From till Wind 250º 8kt. Visibility 10km or more. Scattered Clouds 25000ft.
From till Wind 330º 5kt. Visibility 10km or more. Scattered Clouds 15000ft.

Brut: KINT 281120Z 2812/2912 25008KT P6SM SCT250 FM290500 33005KT P6SM SCT150

Les images satellites pour Winston-Salem, États-Unis

Le marqueur est placé sur Winston-Salem. [Plus]

L'image satellite en temps réel combine la lumière visible pendant la journée et le rayonnement infrarouge pendant la nuit. La nuit, l'image n'est pas sombre car le rayonnement infrarouge permet de détecter les différences de température. Malheureusement, les nuages bas et le brouillard sont difficiles à distinguer des températures au sol et peuvent donc être presque invisibles pendant la nuit. Les images des satellites Météosat pour l'Europe sont mises à jour en temps réel toutes les 5 minutes. Les images GOES-16/GOES-17 (Amérique du Nord et du Sud) et Himawari (Asie) sont mises à jour toutes les 10 minutes.

Radar et prévision de précipitation à court terme pour Winston-Salem

Bruine
Légère
Modéré
Fort
Très fort
Grêle

Le marqueur est placé sur Winston-Salem. Cette animation montre le Radar des précipitations pour les dernières heures, ainsi qu'une 1h prévision. La bruine ou les légères chutes de neiges peuvent ne pas être détectées par le radar. L'intensité des précipitations est visible avec un code couleur allant du bleu clair au orange.